Time,TemperatureF,DewpointF,PressureIn,WindDirection,WindDirectionDegrees,WindSpeedMPH,WindSpeedGustMPH,Humidity,HourlyPrecipIn,Conditions,Clouds,dailyrainin,SoftwareType,DateUTC
2013-02-21 00:00:00,34.1,9.9,29.86,NW,324,0.0,0.0,36,0.00,,,0.00,Wunderground v.1.15,2013-02-21 05:00:00,
2013-02-21 00:05:00,34.1,7.3,29.85,NW,324,0.0,0.0,32,0.00,,,0.00,Wunderground v.1.15,2013-02-21 05:05:00,
2013-02-21 00:15:00,33.2,12.0,29.86,NW,324,0.0,0.0,41,0.00,,,0.00,Wunderground v.1.15,2013-02-21 05:15:00,
2013-02-21 00:20:00,33.3,9.2,29.86,NW,324,0.0,0.0,36,0.00,,,0.00,Wunderground v.1.15,2013-02-21 05:20:00,
2013-02-21 00:25:00,33.5,6.7,29.86,NW,324,1.0,1.0,32,0.00,,,0.00,Wunderground v.1.15,2013-02-21 05:25:00,
2013-02-21 00:35:00,32.8,8.7,29.86,NW,324,0.0,2.0,36,0.00,,,0.00,Wunderground v.1.15,2013-02-21 05:35:00,
2013-02-21 00:40:00,32.6,9.8,29.85,NW,324,0.0,0.0,38,0.00,,,0.00,Wunderground v.1.15,2013-02-21 05:40:00,
2013-02-21 00:46:00,31.9,11.9,29.85,NW,324,0.0,0.0,43,0.00,,,0.00,Wunderground v.1.15,2013-02-21 05:46:00,
2013-02-21 00:55:00,32.1,7.5,29.86,NW,324,0.0,0.0,35,0.00,,,0.00,Wunderground v.1.15,2013-02-21 05:55:00,
2013-02-21 01:00:00,31.9,10.8,29.86,NW,324,0.0,0.0,41,0.00,,,0.00,Wunderground v.1.15,2013-02-21 06:00:00,
2013-02-21 01:05:00,31.5,9.4,29.86,NW,324,0.0,1.0,39,0.00,,,0.00,Wunderground v.1.15,2013-02-21 06:05:00,
2013-02-21 01:10:00,30.2,14.2,29.86,NW,324,1.0,1.0,51,0.00,,,0.00,Wunderground v.1.15,2013-02-21 06:10:00,
2013-02-21 01:15:00,31.1,10.6,29.85,NW,324,0.0,1.0,42,0.00,,,0.00,Wunderground v.1.15,2013-02-21 06:15:00,
2013-02-21 01:25:00,32.6,8.6,29.86,NW,324,0.0,0.0,36,0.00,,,0.00,Wunderground v.1.15,2013-02-21 06:25:00,
2013-02-21 01:35:00,33.0,8.9,29.85,NW,324,0.0,0.0,36,0.00,,,0.00,Wunderground v.1.15,2013-02-21 06:35:00,
2013-02-21 01:40:00,32.4,9.6,29.85,NW,324,0.0,0.0,38,0.00,,,0.00,Wunderground v.1.15,2013-02-21 06:40:00,
2013-02-21 01:45:00,32.3,12.8,29.86,NW,324,0.0,1.0,44,0.00,,,0.00,Wunderground v.1.15,2013-02-21 06:45:00,
2013-02-21 01:55:00,31.2,13.8,29.86,WNW,298,1.0,2.0,48,0.00,,,0.00,Wunderground v.1.15,2013-02-21 06:55:00,
2013-02-21 02:00:00,31.9,10.3,29.86,West,266,2.0,3.0,40,0.00,,,0.00,Wunderground v.1.15,2013-02-21 07:00:00,
2013-02-21 02:05:00,32.0,12.0,29.86,West,261,3.0,3.0,43,0.00,,,0.00,Wunderground v.1.15,2013-02-21 07:05:00,
2013-02-21 02:15:00,31.1,12.7,29.87,SW,218,3.0,3.0,46,0.00,,,0.00,Wunderground v.1.15,2013-02-21 07:15:00,
2013-02-21 02:25:00,30.6,13.2,29.88,SW,220,4.0,4.0,48,0.00,,,0.00,Wunderground v.1.15,2013-02-21 07:25:00,
2013-02-21 02:31:00,30.5,11.7,29.88,SW,219,2.0,2.0,45,0.00,,,0.00,Wunderground v.1.15,2013-02-21 07:31:00,
2013-02-21 02:40:00,29.1,14.5,29.89,SW,219,0.0,0.0,54,0.00,,,0.00,Wunderground v.1.15,2013-02-21 07:40:00,
2013-02-21 02:45:00,29.0,14.0,29.89,SW,219,0.0,0.0,53,0.00,,,0.00,Wunderground v.1.15,2013-02-21 07:45:00,
2013-02-21 02:50:00,28.9,13.9,29.88,SW,219,0.0,2.0,53,0.00,,,0.00,Wunderground v.1.15,2013-02-21 07:50:00,
2013-02-21 02:55:00,28.5,14.4,29.89,SW,219,1.0,2.0,55,0.00,,,0.00,Wunderground v.1.15,2013-02-21 07:55:00,
2013-02-21 03:05:00,28.0,15.9,29.89,SW,216,0.0,1.0,60,0.00,,,0.00,Wunderground v.1.15,2013-02-21 08:05:00,
2013-02-21 03:10:00,27.9,15.0,29.89,SW,216,0.0,0.0,58,0.00,,,0.00,Wunderground v.1.15,2013-02-21 08:10:00,
2013-02-21 03:15:00,27.9,16.2,29.89,SW,216,0.0,0.0,61,0.00,,,0.00,Wunderground v.1.15,2013-02-21 08:15:00,
2013-02-21 03:25:00,27.5,15.0,29.89,West,267,1.0,2.0,59,0.00,,,0.00,Wunderground v.1.15,2013-02-21 08:25:00,
2013-02-21 03:30:00,28.5,14.4,29.88,West,269,2.0,2.0,55,0.00,,,0.00,Wunderground v.1.15,2013-02-21 08:30:00,
2013-02-21 03:35:00,29.6,14.1,29.88,West,269,1.0,2.0,52,0.00,,,0.00,Wunderground v.1.15,2013-02-21 08:35:00,
2013-02-21 03:40:00,29.6,14.5,29.88,West,269,1.0,2.0,53,0.00,,,0.00,Wunderground v.1.15,2013-02-21 08:40:00,
2013-02-21 03:46:00,29.8,13.9,29.88,West,269,1.0,2.0,51,0.00,,,0.00,Wunderground v.1.15,2013-02-21 08:46:00,
2013-02-21 03:55:00,30.1,13.2,29.89,West,272,2.0,2.0,49,0.00,,,0.00,Wunderground v.1.15,2013-02-21 08:55:00,
2013-02-21 04:01:00,31.1,14.1,29.88,NE,47,2.0,2.0,49,0.00,,,0.00,Wunderground v.1.15,2013-02-21 09:01:00,
2013-02-21 04:10:00,31.4,12.5,29.88,ENE,60,2.0,2.0,45,0.00,,,0.00,Wunderground v.1.15,2013-02-21 09:10:00,
2013-02-21 04:15:00,31.5,13.1,29.88,ENE,60,1.0,2.0,46,0.00,,,0.00,Wunderground v.1.15,2013-02-21 09:15:00,
2013-02-21 04:25:00,31.7,11.7,29.88,ENE,60,1.0,1.0,43,0.00,,,0.00,Wunderground v.1.15,2013-02-21 09:25:00,
2013-02-21 04:30:00,31.4,13.0,29.88,ENE,59,1.0,2.0,46,0.00,,,0.00,Wunderground v.1.15,2013-02-21 09:30:00,
2013-02-21 04:40:00,31.7,12.2,29.88,ENE,59,0.0,0.0,44,0.00,,,0.00,Wunderground v.1.15,2013-02-21 09:40:00,
2013-02-21 04:45:00,31.6,12.2,29.88,ENE,59,1.0,1.0,44,0.00,,,0.00,Wunderground v.1.15,2013-02-21 09:45:00,
2013-02-21 04:55:00,31.6,11.6,29.89,ENE,59,0.0,1.0,43,0.00,,,0.00,Wunderground v.1.15,2013-02-21 09:55:00,
2013-02-21 05:00:00,32.3,11.7,29.88,ENE,59,0.0,0.0,42,0.00,,,0.00,Wunderground v.1.15,2013-02-21 10:00:00,
2013-02-21 05:05:00,32.6,10.3,29.89,ENE,59,0.0,0.0,39,0.00,,,0.00,Wunderground v.1.15,2013-02-21 10:05:00,
2013-02-21 05:15:00,33.9,9.7,29.89,ENE,59,0.0,0.0,36,0.00,,,0.00,Wunderground v.1.15,2013-02-21 10:15:00,
2013-02-21 05:25:00,34.2,10.0,29.90,ENE,59,0.0,1.0,36,0.00,,,0.00,Wunderground v.1.15,2013-02-21 10:25:00,
2013-02-21 05:31:00,34.3,9.4,29.90,ENE,59,0.0,2.0,35,0.00,,,0.00,Wunderground v.1.15,2013-02-21 10:31:00,
2013-02-21 05:40:00,34.4,8.9,29.91,ENE,59,0.0,0.0,34,0.00,,,0.00,Wunderground v.1.15,2013-02-21 10:40:00,
2013-02-21 05:45:00,34.7,9.1,29.90,ENE,59,0.0,0.0,34,0.00,,,0.00,Wunderground v.1.15,2013-02-21 10:45:00,
2013-02-21 05:55:00,35.0,10.7,29.90,ENE,59,0.0,0.0,36,0.00,,,0.00,Wunderground v.1.15,2013-02-21 10:55:00,
2013-02-21 06:00:00,34.5,10.2,29.90,ENE,59,0.0,0.0,36,0.00,,,0.00,Wunderground v.1.15,2013-02-21 11:00:00,
2013-02-21 06:10:00,33.5,9.4,29.91,ENE,59,0.0,0.0,36,0.00,,,0.00,Wunderground v.1.15,2013-02-21 11:10:00,
2013-02-21 06:16:00,34.4,10.2,29.91,ENE,59,0.0,0.0,36,0.00,,,0.00,Wunderground v.1.15,2013-02-21 11:16:00,
2013-02-21 06:25:00,34.4,13.6,29.92,ENE,59,0.0,0.0,42,0.00,,,0.00,Wunderground v.1.15,2013-02-21 11:25:00,
2013-02-21 06:30:00,32.5,10.8,29.92,ENE,59,0.0,0.0,40,0.00,,,0.00,Wunderground v.1.15,2013-02-21 11:30:00,
2013-02-21 06:40:00,32.4,10.2,29.92,ENE,59,0.0,0.0,39,0.00,,,0.00,Wunderground v.1.15,2013-02-21 11:40:00,
2013-02-21 06:46:00,32.2,11.6,29.93,ENE,59,0.0,0.0,42,0.00,,,0.00,Wunderground v.1.15,2013-02-21 11:46:00,
2013-02-21 06:55:00,31.1,14.6,29.93,ENE,59,0.0,0.0,50,0.00,,,0.00,Wunderground v.1.15,2013-02-21 11:55:00,
2013-02-21 07:01:00,30.7,12.8,29.93,ENE,59,0.0,0.0,47,0.00,,,0.00,Wunderground v.1.15,2013-02-21 12:01:00,
2013-02-21 07:10:00,29.9,13.5,29.95,ENE,59,0.0,0.0,50,0.00,,,0.00,Wunderground v.1.15,2013-02-21 12:10:00,
2013-02-21 07:20:00,29.4,11.6,29.95,ENE,59,0.0,2.0,47,0.00,,,0.00,Wunderground v.1.15,2013-02-21 12:20:00,
2013-02-21 07:25:00,29.9,11.6,29.95,ENE,59,1.0,2.0,46,0.00,,,0.00,Wunderground v.1.15,2013-02-21 12:25:00,
2013-02-21 07:31:00,30.2,10.9,29.96,ENE,59,0.0,0.0,44,0.00,,,0.00,Wunderground v.1.15,2013-02-21 12:31:00,
2013-02-21 07:40:00,30.4,12.5,29.96,ENE,59,0.0,0.0,47,0.00,,,0.00,Wunderground v.1.15,2013-02-21 12:40:00,
2013-02-21 07:50:00,29.3,15.1,29.96,ENE,59,0.0,0.0,55,0.00,,,0.00,Wunderground v.1.15,2013-02-21 12:50:00,
2013-02-21 07:55:00,29.7,12.4,29.96,ENE,59,0.0,0.0,48,0.00,,,0.00,Wunderground v.1.15,2013-02-21 12:55:00,
2013-02-21 08:01:00,30.6,12.2,29.96,ENE,59,0.0,0.0,46,0.00,,,0.00,Wunderground v.1.15,2013-02-21 13:01:00,
2013-02-21 08:10:00,31.2,11.8,29.97,ENE,59,0.0,1.0,44,0.00,,,0.00,Wunderground v.1.15,2013-02-21 13:10:00,
2013-02-21 08:15:00,33.0,10.7,29.97,ENE,59,0.0,0.0,39,0.00,,,0.00,Wunderground v.1.15,2013-02-21 13:15:00,
2013-02-21 08:20:00,34.4,13.6,29.97,ENE,59,0.0,1.0,42,0.00,,,0.00,Wunderground v.1.15,2013-02-21 13:20:00,
2013-02-21 08:31:00,34.4,15.2,29.98,ENE,59,0.0,1.0,45,0.00,,,0.00,Wunderground v.1.15,2013-02-21 13:31:00,
2013-02-21 08:40:00,36.9,15.9,29.97,ENE,59,0.0,0.0,42,0.00,,,0.00,Wunderground v.1.15,2013-02-21 13:40:00,
2013-02-21 08:46:00,37.8,13.2,29.98,ENE,59,0.0,0.0,36,0.00,,,0.00,Wunderground v.1.15,2013-02-21 13:46:00,
2013-02-21 08:55:00,38.3,13.6,29.98,ENE,57,1.0,3.0,36,0.00,,,0.00,Wunderground v.1.15,2013-02-21 13:55:00,
2013-02-21 09:05:00,38.8,14.7,29.98,ESE,118,2.0,2.0,37,0.00,,,0.00,Wunderground v.1.15,2013-02-21 14:05:00,
2013-02-21 09:10:00,39.4,15.3,29.98,East,101,2.0,2.0,37,0.00,,,0.00,Wunderground v.1.15,2013-02-21 14:10:00,
2013-02-21 09:16:00,39.6,14.8,29.97,ENE,68,1.0,4.0,36,0.00,,,0.00,Wunderground v.1.15,2013-02-21 14:16:00,
2013-02-21 09:25:00,40.4,14.2,29.97,ENE,62,2.0,4.0,34,0.00,,,0.00,Wunderground v.1.15,2013-02-21 14:25:00,
2013-02-21 09:35:00,41.3,15.7,29.97,NE,39,3.0,3.0,35,0.00,,,0.00,Wunderground v.1.15,2013-02-21 14:35:00,
2013-02-21 09:40:00,42.4,17.9,29.97,ESE,112,2.0,3.0,37,0.00,,,0.00,Wunderground v.1.15,2013-02-21 14:40:00,
2013-02-21 09:50:00,42.9,17.1,29.96,NE,49,2.0,3.0,35,0.00,,,0.00,Wunderground v.1.15,2013-02-21 14:50:00,
2013-02-21 09:55:00,43.8,17.9,29.96,ENE,68,2.0,3.0,35,0.00,,,0.00,Wunderground v.1.15,2013-02-21 14:55:00,
2013-02-21 10:05:00,44.3,14.0,29.97,ENE,67,0.0,1.0,29,0.00,,,0.00,Wunderground v.1.15,2013-02-21 15:05:00,
2013-02-21 10:10:00,45.1,13.9,29.95,ESE,103,1.0,3.0,28,0.00,,,0.00,Wunderground v.1.15,2013-02-21 15:10:00,
2013-02-21 10:15:00,45.3,14.9,29.96,East,84,1.0,3.0,29,0.00,,,0.00,Wunderground v.1.15,2013-02-21 15:15:00,
2013-02-21 10:21:00,46.1,15.6,29.95,ESE,108,1.0,3.0,29,0.00,,,0.00,Wunderground v.1.15,2013-02-21 15:21:00,
2013-02-21 10:31:00,46.3,17.3,29.95,ESE,112,1.0,1.0,31,0.00,,,0.00,Wunderground v.1.15,2013-02-21 15:31:00,
2013-02-21 10:40:00,47.3,18.1,29.95,ESE,119,1.0,1.0,31,0.00,,,0.00,Wunderground v.1.15,2013-02-21 15:40:00,
2013-02-21 10:46:00,47.8,13.6,29.95,East,82,1.0,1.0,25,0.00,,,0.00,Wunderground v.1.15,2013-02-21 15:46:00,
2013-02-21 10:55:00,48.7,14.4,29.94,SSE,165,1.0,1.0,25,0.00,,,0.00,Wunderground v.1.15,2013-02-21 15:55:00,
2013-02-21 11:05:00,49.0,16.4,29.94,ESE,105,1.0,4.0,27,0.00,,,0.00,Wunderground v.1.15,2013-02-21 16:05:00,
2013-02-21 11:10:00,48.7,17.0,29.93,ENE,57,2.0,5.0,28,0.00,,,0.00,Wunderground v.1.15,2013-02-21 16:10:00,
2013-02-21 11:20:00,49.4,15.0,29.93,ESE,103,3.0,3.0,25,0.00,,,0.00,Wunderground v.1.15,2013-02-21 16:20:00,
2013-02-21 11:25:00,49.7,14.3,29.92,NE,50,2.0,3.0,24,0.00,,,0.00,Wunderground v.1.15,2013-02-21 16:25:00,
2013-02-21 11:35:00,50.6,15.1,29.93,SSW,196,2.0,3.0,24,0.00,,,0.00,Wunderground v.1.15,2013-02-21 16:35:00,
2013-02-21 11:41:00,50.5,15.0,29.92,NE,39,1.0,4.0,24,0.00,,,0.00,Wunderground v.1.15,2013-02-21 16:41:00,
2013-02-21 11:46:00,50.5,14.0,29.92,NE,41,2.0,4.0,23,0.00,,,0.00,Wunderground v.1.15,2013-02-21 16:46:00,
2013-02-21 11:55:00,52.6,18.6,29.91,South,186,1.0,6.0,26,0.00,,,0.00,Wunderground v.1.15,2013-02-21 16:55:00,
2013-02-21 12:01:00,52.8,17.9,29.91,East,93,2.0,2.0,25,0.00,,,0.00,Wunderground v.1.15,2013-02-21 17:01:00,
2013-02-21 12:10:00,53.5,21.2,29.90,South,171,2.0,2.0,28,0.00,,,0.00,Wunderground v.1.15,2013-02-21 17:10:00,
2013-02-21 12:16:00,53.0,17.1,29.91,East,101,2.0,4.0,24,0.00,,,0.00,Wunderground v.1.15,2013-02-21 17:16:00,
2013-02-21 12:25:00,53.5,20.3,29.89,ESE,120,2.0,3.0,27,0.00,,,0.00,Wunderground v.1.15,2013-02-21 17:25:00,
2013-02-21 12:31:00,53.6,20.4,29.89,South,191,3.0,3.0,27,0.00,,,0.00,Wunderground v.1.15,2013-02-21 17:31:00,
2013-02-21 12:40:00,54.9,20.6,29.89,SSW,201,3.0,5.0,26,0.00,,,0.00,Wunderground v.1.15,2013-02-21 17:40:00,
2013-02-21 12:50:00,55.0,16.8,29.88,SE,125,3.0,3.0,22,0.00,,,0.00,Wunderground v.1.15,2013-02-21 17:50:00,
2013-02-21 12:55:00,54.4,21.9,29.88,SSW,207,2.0,3.0,28,0.00,,,0.00,Wunderground v.1.15,2013-02-21 17:55:00,
2013-02-21 13:05:00,55.6,17.3,29.86,NE,55,2.0,5.0,22,0.00,,,0.00,Wunderground v.1.15,2013-02-21 18:05:00,
2013-02-21 13:10:00,55.7,18.4,29.86,SSW,200,2.0,6.0,23,0.00,,,0.00,Wunderground v.1.15,2013-02-21 18:10:00,
2013-02-21 13:16:00,56.3,21.8,29.86,SSW,201,3.0,6.0,26,0.00,,,0.00,Wunderground v.1.15,2013-02-21 18:16:00,
2013-02-21 13:21:00,56.3,18.9,29.86,South,176,3.0,3.0,23,0.00,,,0.00,Wunderground v.1.15,2013-02-21 18:21:00,
2013-02-21 13:35:00,56.7,18.2,29.86,ENE,70,2.0,4.0,22,0.00,,,0.00,Wunderground v.1.15,2013-02-21 18:35:00,
2013-02-21 13:41:00,56.7,20.3,29.85,SSW,197,2.0,4.0,24,0.00,,,0.00,Wunderground v.1.15,2013-02-21 18:41:00,
2013-02-21 13:46:00,56.9,19.4,29.85,SE,136,2.0,2.0,23,0.00,,,0.00,Wunderground v.1.15,2013-02-21 18:46:00,
2013-02-21 13:55:00,57.3,19.8,29.85,East,97,2.0,2.0,23,0.00,,,0.00,Wunderground v.1.15,2013-02-21 18:55:00,
2013-02-21 14:01:00,57.8,21.2,29.85,SSW,193,3.0,3.0,24,0.00,,,0.00,Wunderground v.1.15,2013-02-21 19:01:00,
2013-02-21 14:10:00,58.4,21.7,29.85,SSW,193,4.0,4.0,24,0.00,,,0.00,Wunderground v.1.15,2013-02-21 19:10:00,
2013-02-21 14:16:00,58.3,22.6,29.86,SSW,201,3.0,4.0,25,0.00,,,0.00,Wunderground v.1.15,2013-02-21 19:16:00,
2013-02-21 14:25:00,58.0,23.3,29.85,SSW,212,4.0,9.0,26,0.00,,,0.00,Wunderground v.1.15,2013-02-21 19:25:00,
2013-02-21 14:30:00,58.3,21.6,29.85,WSW,238,5.0,5.0,24,0.00,,,0.00,Wunderground v.1.15,2013-02-21 19:30:00,
2013-02-21 14:35:00,58.3,23.5,29.85,SW,222,4.0,9.0,26,0.00,,,0.00,Wunderground v.1.15,2013-02-21 19:35:00,
2013-02-21 14:40:00,58.6,21.9,29.84,WSW,237,4.0,5.0,24,0.00,,,0.00,Wunderground v.1.15,2013-02-21 19:40:00,
2013-02-21 14:46:00,58.0,22.3,29.84,SW,224,4.0,5.0,25,0.00,,,0.00,Wunderground v.1.15,2013-02-21 19:46:00,
2013-02-21 14:55:00,58.2,23.4,29.84,SSE,165,2.0,4.0,26,0.00,,,0.00,Wunderground v.1.15,2013-02-21 19:55:00,
2013-02-21 15:00:00,59.0,25.0,29.84,SSW,202,4.0,6.0,27,0.00,,,0.00,Wunderground v.1.15,2013-02-21 20:00:00,
2013-02-21 15:05:00,59.0,23.2,29.83,SSW,196,5.0,6.0,25,0.00,,,0.00,Wunderground v.1.15,2013-02-21 20:05:00,
2013-02-21 15:10:00,59.0,23.2,29.83,South,176,3.0,3.0,25,0.00,,,0.00,Wunderground v.1.15,2013-02-21 20:10:00,
2013-02-21 15:15:00,58.6,25.6,29.83,ESE,108,2.0,3.0,28,0.00,,,0.00,Wunderground v.1.15,2013-02-21 20:15:00,
2013-02-21 15:25:00,58.1,22.4,29.83,South,183,2.0,3.0,25,0.00,,,0.00,Wunderground v.1.15,2013-02-21 20:25:00,
2013-02-21 15:35:00,58.3,23.5,29.82,South,183,1.0,3.0,26,0.00,,,0.00,Wunderground v.1.15,2013-02-21 20:35:00,
2013-02-21 15:40:00,58.1,23.3,29.82,ESE,123,1.0,1.0,26,0.00,,,0.00,Wunderground v.1.15,2013-02-21 20:40:00,
2013-02-21 15:45:00,58.3,24.4,29.82,East,94,2.0,2.0,27,0.00,,,0.00,Wunderground v.1.15,2013-02-21 20:45:00,
2013-02-21 15:56:00,58.7,24.8,29.82,SSE,162,2.0,3.0,27,0.00,,,0.00,Wunderground v.1.15,2013-02-21 20:56:00,
2013-02-21 16:05:00,59.0,27.6,29.82,ESE,121,2.0,2.0,30,0.00,,,0.00,Wunderground v.1.15,2013-02-21 21:05:00,
2013-02-21 16:10:00,59.0,25.0,29.82,South,179,2.0,2.0,27,0.00,,,0.00,Wunderground v.1.15,2013-02-21 21:10:00,
2013-02-21 16:20:00,59.0,24.1,29.81,SE,129,2.0,2.0,26,0.00,,,0.00,Wunderground v.1.15,2013-02-21 21:20:00,
2013-02-21 16:25:00,58.6,26.4,29.80,East,81,2.0,2.0,29,0.00,,,0.00,Wunderground v.1.15,2013-02-21 21:25:00,
2013-02-21 16:35:00,58.0,25.9,29.79,ENE,65,1.0,3.0,29,0.00,,,0.00,Wunderground v.1.15,2013-02-21 21:35:00,
2013-02-21 16:40:00,57.7,26.4,29.78,NE,54,2.0,5.0,30,0.00,,,0.00,Wunderground v.1.15,2013-02-21 21:40:00,
2013-02-21 16:46:00,57.4,24.5,29.79,ESE,108,3.0,3.0,28,0.00,,,0.00,Wunderground v.1.15,2013-02-21 21:46:00,
2013-02-21 16:55:00,57.1,25.9,29.79,ESE,113,2.0,2.0,30,0.00,,,0.00,Wunderground v.1.15,2013-02-21 21:55:00,
2013-02-21 17:00:00,56.9,25.7,29.79,SE,141,2.0,2.0,30,0.00,,,0.00,Wunderground v.1.15,2013-02-21 22:00:00,
2013-02-21 17:05:00,56.9,25.7,29.79,ESE,109,1.0,2.0,30,0.00,,,0.00,Wunderground v.1.15,2013-02-21 22:05:00,
2013-02-21 17:10:00,56.7,27.1,29.79,SE,145,1.0,2.0,32,0.00,,,0.00,Wunderground v.1.15,2013-02-21 22:10:00,
2013-02-21 17:20:00,56.2,25.1,29.80,SSE,152,3.0,3.0,30,0.00,,,0.00,Wunderground v.1.15,2013-02-21 22:20:00,
2013-02-21 17:25:00,55.9,24.9,29.78,ESE,107,2.0,3.0,30,0.00,,,0.00,Wunderground v.1.15,2013-02-21 22:25:00,
2013-02-21 17:30:00,55.7,24.7,29.79,ESE,122,1.0,4.0,30,0.00,,,0.00,Wunderground v.1.15,2013-02-21 22:30:00,
2013-02-21 17:35:00,55.5,26.1,29.79,SE,139,1.0,4.0,32,0.00,,,0.00,Wunderground v.1.15,2013-02-21 22:35:00,
2013-02-21 17:40:00,55.3,25.1,29.80,SSE,160,1.0,1.0,31,0.00,,,0.00,Wunderground v.1.15,2013-02-21 22:40:00,
2013-02-21 17:46:00,55.1,25.0,29.80,SSW,198,1.0,1.0,31,0.00,,,0.00,Wunderground v.1.15,2013-02-21 22:46:00,
2013-02-21 17:55:00,54.8,25.5,29.80,SSE,151,1.0,1.0,32,0.00,,,0.00,Wunderground v.1.15,2013-02-21 22:55:00,
2013-02-21 18:00:00,54.5,24.4,29.79,SSE,151,0.0,0.0,31,0.00,,,0.00,Wunderground v.1.15,2013-02-21 23:00:00,
2013-02-21 18:10:00,54.0,24.8,29.79,ESE,103,2.0,2.0,32,0.00,,,0.00,Wunderground v.1.15,2013-02-21 23:10:00,
2013-02-21 18:16:00,53.9,24.7,29.78,ENE,76,4.0,5.0,32,0.00,,,0.00,Wunderground v.1.15,2013-02-21 23:16:00,
2013-02-21 18:25:00,53.8,24.6,29.77,SE,134,5.0,7.0,32,0.00,,,0.00,Wunderground v.1.15,2013-02-21 23:25:00,
2013-02-21 18:31:00,53.7,24.5,29.77,ENE,62,5.0,7.0,32,0.00,,,0.00,Wunderground v.1.15,2013-02-21 23:31:00,
2013-02-21 18:40:00,53.3,24.9,29.78,ESE,111,3.0,3.0,33,0.00,,,0.00,Wunderground v.1.15,2013-02-21 23:40:00,
2013-02-21 18:46:00,53.3,24.2,29.81,SE,140,2.0,3.0,32,0.00,,,0.00,Wunderground v.1.15,2013-02-21 23:46:00,
2013-02-21 18:55:00,53.0,24.6,29.81,ESE,107,1.0,3.0,33,0.00,,,0.00,Wunderground v.1.15,2013-02-21 23:55:00,
2013-02-21 19:01:00,52.9,23.8,29.82,ESE,110,1.0,1.0,32,0.00,,,0.00,Wunderground v.1.15,2013-02-22 00:01:00,
2013-02-21 19:10:00,52.6,25.0,29.82,East,88,3.0,3.0,34,0.00,,,0.00,Wunderground v.1.15,2013-02-22 00:10:00,
2013-02-21 19:16:00,52.3,24.7,29.82,East,99,3.0,3.0,34,0.00,,,0.00,Wunderground v.1.15,2013-02-22 00:16:00,
2013-02-21 19:25:00,52.3,24.7,29.84,East,82,2.0,3.0,34,0.00,,,0.00,Wunderground v.1.15,2013-02-22 00:25:00,
2013-02-21 19:30:00,52.4,24.8,29.83,East,83,2.0,2.0,34,0.00,,,0.00,Wunderground v.1.15,2013-02-22 00:30:00,
2013-02-21 19:35:00,52.1,26.6,29.86,East,82,1.0,2.0,37,0.00,,,0.00,Wunderground v.1.15,2013-02-22 00:35:00,
2013-02-21 19:45:00,50.7,29.0,29.86,East,86,1.0,3.0,43,0.00,,,0.00,Wunderground v.1.15,2013-02-22 00:45:00,
2013-02-21 19:50:00,50.3,26.9,29.89,ENE,63,2.0,2.0,40,0.00,,,0.00,Wunderground v.1.15,2013-02-22 00:50:00,
2013-02-21 19:56:00,50.6,28.3,29.89,ENE,63,1.0,3.0,42,0.00,,,0.00,Wunderground v.1.15,2013-02-22 00:56:00,
2013-02-21 20:05:00,49.4,31.0,29.87,ENE,66,2.0,2.0,49,0.00,,,0.00,Wunderground v.1.15,2013-02-22 01:05:00,
2013-02-21 20:10:00,48.2,35.0,29.86,ENE,68,1.0,4.0,60,0.00,,,0.01,Wunderground v.1.15,2013-02-22 01:10:00,
2013-02-21 20:16:00,47.1,32.2,29.85,ENE,66,2.0,4.0,56,0.00,,,0.01,Wunderground v.1.15,2013-02-22 01:16:00,
2013-02-21 20:25:00,47.2,31.8,29.89,NE,49,2.0,4.0,55,0.00,,,0.01,Wunderground v.1.15,2013-02-22 01:25:00,
2013-02-21 20:30:00,46.8,33.6,29.89,ENE,63,2.0,2.0,60,0.00,,,0.02,Wunderground v.1.15,2013-02-22 01:30:00,
2013-02-21 20:40:00,45.4,35.1,29.86,East,93,3.0,3.0,67,0.05,,,0.03,Wunderground v.1.15,2013-02-22 01:40:00,
2013-02-21 20:46:00,44.3,35.5,29.86,ENE,77,2.0,3.0,71,0.10,,,0.04,Wunderground v.1.15,2013-02-22 01:46:00,
2013-02-21 20:55:00,43.4,35.7,29.86,ENE,58,3.0,3.0,74,0.08,,,0.05,Wunderground v.1.15,2013-02-22 01:55:00,
2013-02-21 21:00:00,43.2,35.5,29.86,ENE,59,4.0,4.0,74,0.08,,,0.05,Wunderground v.1.15,2013-02-22 02:00:00,
2013-02-21 21:10:00,42.6,36.5,29.86,North,360,4.0,9.0,79,0.11,,,0.07,Wunderground v.1.15,2013-02-22 02:10:00,
2013-02-21 21:16:00,42.3,36.3,29.86,NNE,31,6.0,9.0,79,0.12,,,0.09,Wunderground v.1.15,2013-02-22 02:16:00,
2013-02-21 21:25:00,42.3,36.6,29.91,ENE,76,3.0,6.0,80,0.12,,,0.11,Wunderground v.1.15,2013-02-22 02:25:00,
2013-02-21 21:30:00,42.0,36.9,29.88,ENE,76,3.0,3.0,82,0.42,,,0.14,Wunderground v.1.15,2013-02-22 02:30:00,
2013-02-21 21:41:00,41.5,37.0,29.87,NE,43,4.0,4.0,84,0.09,,,0.15,Wunderground v.1.15,2013-02-22 02:41:00,
2013-02-21 21:50:00,41.3,36.8,29.87,ENE,70,5.0,5.0,84,0.07,,,0.16,Wunderground v.1.15,2013-02-22 02:50:00,
2013-02-21 21:55:00,41.2,36.7,29.87,NE,55,6.0,6.0,84,0.05,,,0.16,Wunderground v.1.15,2013-02-22 02:55:00,
2013-02-21 22:01:00,41.2,36.7,29.88,NE,52,6.0,6.0,84,0.00,,,0.16,Wunderground v.1.15,2013-02-22 03:01:00,
2013-02-21 22:10:00,41.3,36.8,29.88,ENE,63,5.0,5.0,84,0.00,,,0.16,Wunderground v.1.15,2013-02-22 03:10:00,
2013-02-21 22:20:00,41.4,36.6,29.88,ENE,66,5.0,5.0,83,0.00,,,0.16,Wunderground v.1.15,2013-02-22 03:20:00,
2013-02-21 22:25:00,41.5,36.7,29.86,ENE,68,6.0,6.0,83,0.00,,,0.17,Wunderground v.1.15,2013-02-22 03:25:00,
2013-02-21 22:30:00,41.5,36.7,29.86,NE,54,5.0,6.0,83,0.00,,,0.17,Wunderground v.1.15,2013-02-22 03:30:00,
2013-02-21 22:35:00,41.6,36.5,29.88,ENE,69,5.0,6.0,82,0.00,,,0.17,Wunderground v.1.15,2013-02-22 03:35:00,
2013-02-21 22:45:00,41.8,36.7,29.89,ENE,58,4.0,5.0,82,0.00,,,0.18,Wunderground v.1.15,2013-02-22 03:45:00,
2013-02-21 22:55:00,41.7,36.9,29.89,NE,48,6.0,6.0,83,0.00,,,0.18,Wunderground v.1.15,2013-02-22 03:55:00,
2013-02-21 23:00:00,41.7,36.9,29.89,East,80,5.0,5.0,83,0.00,,,0.19,Wunderground v.1.15,2013-02-22 04:00:00,
2013-02-21 23:05:00,41.8,36.7,29.89,ENE,70,5.0,5.0,82,0.00,,,0.19,Wunderground v.1.15,2013-02-22 04:05:00,
2013-02-21 23:15:00,41.8,37.0,29.90,NE,45,4.0,6.0,83,0.00,,,0.19,Wunderground v.1.15,2013-02-22 04:15:00,
2013-02-21 23:20:00,41.8,37.0,29.91,NNE,24,5.0,10.0,83,0.00,,,0.20,Wunderground v.1.15,2013-02-22 04:20:00,
2013-02-21 23:25:00,41.8,37.0,29.92,NE,49,6.0,10.0,83,0.00,,,0.20,Wunderground v.1.15,2013-02-22 04:25:00,
2013-02-21 23:31:00,41.8,37.0,29.91,ENE,66,6.0,6.0,83,0.20,,,0.22,Wunderground v.1.15,2013-02-22 04:31:00,
2013-02-21 23:36:00,41.6,36.8,29.90,ENE,71,5.0,6.0,83,0.15,,,0.23,Wunderground v.1.15,2013-02-22 04:36:00,
2013-02-21 23:46:00,41.3,36.8,29.90,ENE,58,4.0,4.0,84,0.08,,,0.25,Wunderground v.1.15,2013-02-22 04:46:00,
2013-02-21 23:51:00,41.3,36.8,29.92,NE,39,4.0,5.0,84,0.17,,,0.26,Wunderground v.1.15,2013-02-22 04:51:00,